DLH7PX EDDF-EDDH

Flight info

Callsign DLH7PX
Flight time 1h 2m
Altitude 35000
Route MARUN6E/07C MARUN Y150 TOLGI DCT SAS/N0418F340 P605 NOLGO NOLGO6A
Aircraft A320/M-SDE2E3FGIJ1LORWXYZ/HB1

Departure

Time 2026-05-07 19:20
Airport Frankfurt Main Airport (EDDF)

Arrival

Time 2026-05-07 20:23
Airport Hamburg Helmut Schmidt Airport (EDDH)
Time Latitude Longitude Altitude Speed Heading
2026-05-07 18:53 50.04877 8.58972 365 ft 0 kts 340°
2026-05-07 19:06 50.04859 8.58982 365 ft 3 kts 340°
2026-05-07 19:06 50.04819 8.59005 367 ft 3 kts 340°
2026-05-07 19:06 50.04798 8.59017 368 ft 3 kts 340°
2026-05-07 19:07 50.04794 8.59019 368 ft 0 kts 340°
2026-05-07 19:09 50.04791 8.58968 368 ft 13 kts 227°
2026-05-07 19:09 50.04741 8.58828 372 ft 19 kts 250°
2026-05-07 19:09 50.04693 8.58651 370 ft 17 kts 249°
2026-05-07 19:10 50.04654 8.58486 370 ft 17 kts 250°
2026-05-07 19:10 50.04614 8.58318 372 ft 16 kts 250°
2026-05-07 19:10 50.04570 8.58136 366 ft 23 kts 249°
2026-05-07 19:10 50.04510 8.57883 367 ft 25 kts 249°
2026-05-07 19:11 50.04447 8.57618 370 ft 27 kts 249°
2026-05-07 19:11 50.04381 8.57340 363 ft 28 kts 250°
2026-05-07 19:11 50.04312 8.57051 365 ft 29 kts 250°
2026-05-07 19:11 50.04240 8.56753 363 ft 29 kts 249°
2026-05-07 19:12 50.04171 8.56462 358 ft 29 kts 249°
2026-05-07 19:12 50.04101 8.56170 358 ft 29 kts 249°
2026-05-07 19:12 50.04033 8.55887 352 ft 28 kts 249°
2026-05-07 19:12 50.03967 8.55609 353 ft 26 kts 250°
2026-05-07 19:13 50.03908 8.55363 358 ft 24 kts 249°
2026-05-07 19:13 50.03849 8.55117 356 ft 25 kts 250°
2026-05-07 19:13 50.03784 8.54845 349 ft 28 kts 249°
2026-05-07 19:13 50.03722 8.54585 353 ft 23 kts 249°
2026-05-07 19:14 50.03687 8.54437 345 ft 12 kts 249°
2026-05-07 19:14 50.03667 8.54356 347 ft 0 kts 250°
2026-05-07 19:15 50.03667 8.54354 348 ft 1 kts 250°
2026-05-07 19:15 50.03617 8.54300 344 ft 12 kts 171°
2026-05-07 19:15 50.03577 8.54328 341 ft 0 kts 158°
2026-05-07 19:17 50.03576 8.54328 341 ft 2 kts 158°
2026-05-07 19:17 50.03513 8.54362 347 ft 12 kts 167°
2026-05-07 19:17 50.03496 8.54443 351 ft 9 kts 69°
2026-05-07 19:17 50.03500 8.54458 349 ft 0 kts 69°
2026-05-07 19:19 50.03506 8.54483 349 ft 16 kts 70°
2026-05-07 19:19 50.03642 8.55054 351 ft 92 kts 69°
2026-05-07 19:20 50.03939 8.56290 362 ft 149 kts 69°
2026-05-07 19:20 50.04317 8.57869 843 ft 159 kts 70°
2026-05-07 19:20 50.04703 8.59520 1554 ft 163 kts 69°
2026-05-07 19:20 50.05109 8.61240 2073 ft 179 kts 68°
2026-05-07 19:21 50.05842 8.62920 2421 ft 201 kts 36°
2026-05-07 19:21 50.07197 8.63612 3001 ft 212 kts 359°
2026-05-07 19:21 50.08673 8.63483 3915 ft 213 kts 356°
2026-05-07 19:21 50.10167 8.63370 4799 ft 216 kts 356°
2026-05-07 19:22 50.11719 8.63263 5324 ft 238 kts 356°
2026-05-07 19:22 50.13454 8.63146 5831 ft 259 kts 356°
2026-05-07 19:22 50.15312 8.63027 6663 ft 268 kts 356°
2026-05-07 19:22 50.17165 8.62909 7525 ft 272 kts 356°
2026-05-07 19:23 50.19075 8.62788 8423 ft 277 kts 356°
2026-05-07 19:23 50.21015 8.62661 9333 ft 281 kts 356°
2026-05-07 19:23 50.22991 8.62526 10202 ft 286 kts 356°
2026-05-07 19:23 50.25043 8.62386 10586 ft 308 kts 356°
2026-05-07 19:24 50.27248 8.62238 11086 ft 323 kts 356°
2026-05-07 19:24 50.29518 8.62088 11833 ft 328 kts 356°
2026-05-07 19:24 50.31818 8.61934 12626 ft 333 kts 356°
2026-05-07 19:24 50.34151 8.61806 13428 ft 338 kts 358°
2026-05-07 19:25 50.36518 8.61770 14161 ft 343 kts 359°
2026-05-07 19:25 50.38919 8.61788 14859 ft 346 kts 359°
2026-05-07 19:25 50.41339 8.61823 15563 ft 350 kts 359°
2026-05-07 19:25 50.43757 8.61852 16256 ft 353 kts 359°
2026-05-07 19:26 50.46227 8.62110 16934 ft 358 kts
2026-05-07 19:26 50.48708 8.62471 17637 ft 361 kts
2026-05-07 19:26 50.51229 8.62827 18319 ft 365 kts
2026-05-07 19:26 50.53771 8.63184 18913 ft 368 kts
2026-05-07 19:27 50.56330 8.63545 19513 ft 371 kts
2026-05-07 19:27 50.58917 8.63911 20113 ft 374 kts
2026-05-07 19:27 50.61524 8.64282 20708 ft 378 kts
2026-05-07 19:27 50.64152 8.64654 21291 ft 381 kts
2026-05-07 19:28 50.66799 8.65026 21884 ft 384 kts
2026-05-07 19:28 50.68574 8.65276 22270 ft 386 kts
2026-05-07 19:28 50.71299 8.65664 22858 ft 390 kts
2026-05-07 19:28 50.74012 8.66052 23436 ft 393 kts
2026-05-07 19:29 50.76748 8.66489 23942 ft 397 kts
2026-05-07 19:29 50.79406 8.67557 24408 ft 402 kts 19°
2026-05-07 19:29 50.81972 8.69492 24887 ft 407 kts 30°
2026-05-07 19:29 50.84217 8.72146 25355 ft 411 kts 41°
2026-05-07 19:30 50.86131 8.75512 25820 ft 414 kts 52°
2026-05-07 19:30 50.87877 8.79160 26275 ft 416 kts 52°
2026-05-07 19:30 50.89630 8.82830 26730 ft 418 kts 52°
2026-05-07 19:30 50.91390 8.86517 27165 ft 420 kts 52°
2026-05-07 19:31 50.93156 8.90218 27580 ft 423 kts 52°
2026-05-07 19:31 50.94938 8.93946 27976 ft 425 kts 51°
2026-05-07 19:31 50.96724 8.97684 28077 ft 425 kts 52°
2026-05-07 19:31 50.98509 9.01430 28115 ft 425 kts 52°
2026-05-07 19:32 51.02063 9.08917 28111 ft 424 kts 52°
2026-05-07 19:32 51.05607 9.16416 28111 ft 424 kts 52°
2026-05-07 19:33 51.09363 9.23628 28112 ft 423 kts 41°
2026-05-07 19:33 51.14248 9.28705 28112 ft 420 kts 21°
2026-05-07 19:34 51.19846 9.31159 28112 ft 418 kts 11°
2026-05-07 19:34 51.25587 9.33142 28117 ft 432 kts 11°
2026-05-07 19:35 51.31574 9.35225 28115 ft 445 kts 11°
2026-05-07 19:35 51.37637 9.37344 28100 ft 446 kts 11°
2026-05-07 19:36 51.43701 9.39465 28103 ft 446 kts 11°
2026-05-07 19:36 51.49776 9.41593 28104 ft 447 kts 11°
2026-05-07 19:37 51.55864 9.43735 28112 ft 447 kts 11°
2026-05-07 19:37 51.61900 9.45864 28109 ft 447 kts 11°
2026-05-07 19:38 51.68017 9.48022 28113 ft 448 kts 11°
2026-05-07 19:38 51.74067 9.50153 28110 ft 448 kts 11°
2026-05-07 19:39 51.80163 9.52311 28119 ft 448 kts 11°
2026-05-07 19:39 51.85994 9.55814 28116 ft 450 kts 26°
2026-05-07 19:40 51.91572 9.60441 28121 ft 450 kts 26°
2026-05-07 19:40 51.97157 9.65061 28119 ft 450 kts 26°
2026-05-07 19:41 52.02739 9.69697 28116 ft 450 kts 26°
2026-05-07 19:41 52.08309 9.74346 28119 ft 450 kts 26°
2026-05-07 19:42 52.13888 9.79009 28116 ft 450 kts 26°
2026-05-07 19:42 52.19457 9.83678 28118 ft 450 kts 26°
2026-05-07 19:43 52.25045 9.88261 27925 ft 446 kts 21°
2026-05-07 19:43 52.27987 9.89771 27185 ft 441 kts 14°
2026-05-07 19:43 52.30931 9.91062 26456 ft 437 kts 14°
2026-05-07 19:44 52.33862 9.92326 25765 ft 433 kts 13°
2026-05-07 19:44 52.36769 9.93574 25290 ft 431 kts 13°
2026-05-07 19:44 52.39675 9.94828 25104 ft 431 kts 14°
2026-05-07 19:44 52.42569 9.96094 25134 ft 432 kts 14°
2026-05-07 19:45 52.45474 9.97380 25110 ft 432 kts 14°
2026-05-07 19:45 52.48358 9.98667 24822 ft 427 kts 14°
2026-05-07 19:45 52.51218 9.99945 24172 ft 424 kts 14°
2026-05-07 19:45 52.54052 10.01208 23512 ft 421 kts 14°
2026-05-07 19:46 52.56868 10.02456 22821 ft 417 kts 14°
2026-05-07 19:46 52.59653 10.03693 22187 ft 413 kts 14°
2026-05-07 19:46 52.62416 10.04921 21581 ft 409 kts 14°
2026-05-07 19:46 52.65155 10.06142 20995 ft 406 kts 14°
2026-05-07 19:47 52.67873 10.07360 20446 ft 402 kts 14°
2026-05-07 19:47 52.70521 10.08551 20311 ft 388 kts 14°
2026-05-07 19:47 52.73085 10.09704 20183 ft 374 kts 14°
2026-05-07 19:47 52.75520 10.10800 20058 ft 361 kts 14°
2026-05-07 19:48 52.77932 10.11700 19846 ft 351 kts
2026-05-07 19:48 52.80346 10.11881 19479 ft 346 kts 360°
2026-05-07 19:48 52.82733 10.11951 19234 ft 339 kts
2026-05-07 19:48 52.85057 10.12023 19110 ft 328 kts
2026-05-07 19:49 52.87304 10.12092 18920 ft 320 kts
2026-05-07 19:49 52.89521 10.12161 18613 ft 317 kts
2026-05-07 19:49 52.91719 10.12232 18275 ft 315 kts
2026-05-07 19:49 52.93903 10.12305 17886 ft 313 kts
2026-05-07 19:50 52.96079 10.12379 17519 ft 311 kts
2026-05-07 19:50 52.98235 10.12453 17165 ft 309 kts
2026-05-07 19:50 53.00381 10.12527 16817 ft 308 kts
2026-05-07 19:50 53.02518 10.12600 16480 ft 306 kts
2026-05-07 19:51 53.04636 10.12670 16145 ft 304 kts
2026-05-07 19:51 53.06752 10.12736 15814 ft 303 kts
2026-05-07 19:51 53.08849 10.12802 15492 ft 301 kts
2026-05-07 19:51 53.10940 10.12872 15179 ft 299 kts
2026-05-07 19:52 53.13019 10.12945 14869 ft 298 kts
2026-05-07 19:52 53.15085 10.13017 14560 ft 296 kts
2026-05-07 19:52 53.17141 10.13087 14256 ft 295 kts
2026-05-07 19:52 53.19187 10.13157 13952 ft 293 kts
2026-05-07 19:53 53.21211 10.13224 13757 ft 287 kts
2026-05-07 19:53 53.23178 10.13288 13622 ft 279 kts
2026-05-07 19:53 53.25095 10.13348 13479 ft 271 kts
2026-05-07 19:53 53.26959 10.13518 13242 ft 267 kts 12°
2026-05-07 19:54 53.28618 10.14815 12955 ft 265 kts 41°
2026-05-07 19:54 53.29732 10.17227 12640 ft 264 kts 61°
2026-05-07 19:54 53.30562 10.19962 12326 ft 263 kts 64°
2026-05-07 19:54 53.31354 10.22712 12006 ft 262 kts 64°
2026-05-07 19:55 53.32141 10.25455 11728 ft 261 kts 64°
2026-05-07 19:55 53.32923 10.28182 11437 ft 259 kts 64°
2026-05-07 19:55 53.33701 10.30891 11151 ft 257 kts 64°
2026-05-07 19:55 53.34471 10.33582 10851 ft 256 kts 64°
2026-05-07 19:56 53.35224 10.36226 10560 ft 254 kts 64°
2026-05-07 19:56 53.35983 10.38887 10265 ft 253 kts 64°
2026-05-07 19:56 53.36736 10.41529 10117 ft 251 kts 64°
2026-05-07 19:56 53.37489 10.44169 10111 ft 252 kts 64°
2026-05-07 19:57 53.38244 10.46820 10114 ft 252 kts 64°
2026-05-07 19:57 53.39000 10.49473 10115 ft 252 kts 64°
2026-05-07 19:57 53.39754 10.52124 10116 ft 252 kts 64°
2026-05-07 19:57 53.40510 10.54781 10116 ft 252 kts 64°
2026-05-07 19:58 53.41264 10.57433 10118 ft 252 kts 64°
2026-05-07 19:58 53.42018 10.60086 10117 ft 252 kts 64°
2026-05-07 19:58 53.42771 10.62740 10120 ft 252 kts 64°
2026-05-07 19:58 53.43527 10.65404 10114 ft 252 kts 64°
2026-05-07 19:59 53.44280 10.68058 10113 ft 252 kts 64°
2026-05-07 19:59 53.45033 10.70714 10117 ft 252 kts 64°
2026-05-07 19:59 53.45787 10.73375 10116 ft 252 kts 64°
2026-05-07 19:59 53.46541 10.76033 10119 ft 252 kts 64°
2026-05-07 20:00 53.47292 10.78687 10118 ft 252 kts 64°
2026-05-07 20:00 53.48044 10.81346 10124 ft 252 kts 64°
2026-05-07 20:00 53.48943 10.83809 10119 ft 251 kts 44°
2026-05-07 20:00 53.50422 10.85299 10122 ft 251 kts 14°
2026-05-07 20:01 53.52157 10.85338 10132 ft 253 kts 344°
2026-05-07 20:01 53.53728 10.84027 10130 ft 255 kts 326°
2026-05-07 20:01 53.55186 10.82330 10137 ft 255 kts 325°
2026-05-07 20:01 53.56632 10.80580 10138 ft 256 kts 324°
2026-05-07 20:02 53.58070 10.78820 10143 ft 256 kts 324°
2026-05-07 20:02 53.59511 10.77052 10147 ft 256 kts 324°
2026-05-07 20:02 53.60952 10.75293 10146 ft 256 kts 324°
2026-05-07 20:02 53.62391 10.73530 10149 ft 256 kts 325°
2026-05-07 20:03 53.63833 10.71767 10153 ft 256 kts 324°
2026-05-07 20:03 53.65274 10.70012 10154 ft 255 kts 324°
2026-05-07 20:03 53.66717 10.68247 10156 ft 256 kts 325°
2026-05-07 20:03 53.68154 10.66480 10164 ft 256 kts 324°
2026-05-07 20:04 53.69592 10.64720 10161 ft 256 kts 324°
2026-05-07 20:04 53.71033 10.62944 10161 ft 256 kts 324°
2026-05-07 20:04 53.72469 10.61172 10167 ft 256 kts 325°
2026-05-07 20:04 53.73907 10.59396 10163 ft 256 kts 324°
2026-05-07 20:05 53.75328 10.57651 10166 ft 256 kts 324°
2026-05-07 20:05 53.76765 10.55878 10163 ft 256 kts 323°
2026-05-07 20:05 53.77973 10.53703 10163 ft 256 kts 297°
2026-05-07 20:05 53.78407 10.50819 10157 ft 256 kts 268°
2026-05-07 20:06 53.77938 10.47943 10166 ft 256 kts 238°
2026-05-07 20:06 53.76895 10.45502 10155 ft 256 kts 230°
2026-05-07 20:06 53.75761 10.43159 10149 ft 257 kts 230°
2026-05-07 20:06 53.74621 10.40836 10149 ft 257 kts 230°
2026-05-07 20:07 53.73475 10.38516 10149 ft 257 kts 230°
2026-05-07 20:07 53.72329 10.36202 10144 ft 257 kts 230°
2026-05-07 20:07 53.71182 10.33897 10142 ft 257 kts 229°
2026-05-07 20:07 53.70036 10.31587 10135 ft 257 kts 230°
2026-05-07 20:08 53.68889 10.29278 10080 ft 256 kts 229°
2026-05-07 20:08 53.67753 10.26975 9745 ft 255 kts 230°
2026-05-07 20:08 53.66617 10.24685 9392 ft 254 kts 229°
2026-05-07 20:08 53.65483 10.22401 9026 ft 253 kts 229°
2026-05-07 20:09 53.64335 10.20163 8661 ft 252 kts 226°
2026-05-07 20:09 53.63115 10.18051 8296 ft 252 kts 224°
2026-05-07 20:09 53.61881 10.15963 7940 ft 250 kts 224°
2026-05-07 20:10 53.59432 10.11835 7200 ft 250 kts 224°
2026-05-07 20:10 53.58210 10.09784 6869 ft 248 kts 224°
2026-05-07 20:10 53.56990 10.07739 6532 ft 246 kts 224°
2026-05-07 20:10 53.55807 10.05671 6176 ft 245 kts 228°
2026-05-07 20:11 53.54696 10.03507 5818 ft 244 kts 229°
2026-05-07 20:11 53.53606 10.01327 5465 ft 243 kts 229°
2026-05-07 20:11 53.52532 9.99151 5117 ft 241 kts 229°
2026-05-07 20:11 53.51475 9.96980 5003 ft 240 kts 229°
2026-05-07 20:12 53.50417 9.94799 5009 ft 241 kts 229°
2026-05-07 20:12 53.49355 9.92610 5010 ft 242 kts 229°
2026-05-07 20:12 53.48294 9.90425 5010 ft 242 kts 229°
2026-05-07 20:12 53.47233 9.88242 5010 ft 242 kts 229°
2026-05-07 20:13 53.46170 9.86056 5010 ft 242 kts 229°
2026-05-07 20:13 53.45106 9.83870 5011 ft 241 kts 229°
2026-05-07 20:13 53.44404 9.82427 5008 ft 241 kts 229°
2026-05-07 20:13 53.43371 9.80304 4936 ft 229 kts 229°
2026-05-07 20:14 53.42385 9.78272 4782 ft 221 kts 229°
2026-05-07 20:14 53.41422 9.76281 4524 ft 219 kts 229°
2026-05-07 20:14 53.40467 9.74299 4250 ft 218 kts 229°
2026-05-07 20:14 53.39519 9.72323 3971 ft 217 kts 229°
2026-05-07 20:15 53.38580 9.70350 3683 ft 217 kts 231°
2026-05-07 20:15 53.37971 9.68064 3401 ft 218 kts 264°
2026-05-07 20:15 53.38237 9.65616 3113 ft 216 kts 301°
2026-05-07 20:15 53.39242 9.63800 2980 ft 213 kts 332°
2026-05-07 20:16 53.40627 9.63194 2985 ft 207 kts
2026-05-07 20:16 53.42010 9.63758 2995 ft 205 kts 22°
2026-05-07 20:16 53.43332 9.64623 2992 ft 204 kts 28°
2026-05-07 20:16 53.44608 9.65651 3007 ft 204 kts 29°
2026-05-07 20:17 53.45867 9.66705 3000 ft 197 kts 30°
2026-05-07 20:17 53.47040 9.67687 3030 ft 181 kts 30°
2026-05-07 20:17 53.48070 9.68800 3014 ft 172 kts 44°
2026-05-07 20:17 53.48863 9.70274 3022 ft 169 kts 53°
2026-05-07 20:18 53.49615 9.71789 3013 ft 169 kts 53°
2026-05-07 20:18 53.50363 9.73308 3012 ft 168 kts 53°
2026-05-07 20:18 53.51112 9.74817 3011 ft 168 kts 53°
2026-05-07 20:18 53.51865 9.76330 3009 ft 169 kts 53°
2026-05-07 20:19 53.52617 9.77838 2914 ft 168 kts 53°
2026-05-07 20:19 53.53369 9.79348 2723 ft 168 kts 53°
2026-05-07 20:19 53.54118 9.80844 2502 ft 167 kts 52°
2026-05-07 20:19 53.54865 9.82339 2230 ft 166 kts 53°
2026-05-07 20:20 53.55601 9.83835 2015 ft 166 kts 53°
2026-05-07 20:20 53.56339 9.85323 1819 ft 166 kts 53°
2026-05-07 20:20 53.57071 9.86787 1572 ft 156 kts 52°
2026-05-07 20:20 53.57721 9.88092 1363 ft 142 kts 52°
2026-05-07 20:21 53.58343 9.89339 1176 ft 138 kts 53°
2026-05-07 20:21 53.58949 9.90566 1007 ft 132 kts 53°
2026-05-07 20:21 53.59517 9.91718 817 ft 124 kts 51°
2026-05-07 20:21 53.60090 9.92870 651 ft 130 kts 50°
2026-05-07 20:22 53.60657 9.94017 480 ft 129 kts 51°
2026-05-07 20:22 53.61234 9.95177 324 ft 129 kts 50°
2026-05-07 20:22 53.61810 9.96338 149 ft 128 kts 50°
2026-05-07 20:22 53.62372 9.97476 43 ft 119 kts 50°
2026-05-07 20:23 53.62803 9.98348 43 ft 72 kts 50°
2026-05-07 20:23 53.63031 9.98811 46 ft 38 kts 51°
2026-05-07 20:23 53.63091 9.99080 46 ft 21 kts 82°
2026-05-07 20:23 53.63084 9.99272 47 ft 15 kts 95°
2026-05-07 20:24 53.63116 9.99444 43 ft 17 kts 60°
2026-05-07 20:24 53.63188 9.99604 47 ft 16 kts 51°
2026-05-07 20:24 53.63219 9.99665 48 ft 0 kts 50°
2026-05-07 20:25 53.63224 9.99735 48 ft 10 kts 110°
2026-05-07 20:25 53.63174 9.99800 48 ft 9 kts 150°
2026-05-07 20:25 53.63096 9.99871 48 ft 17 kts 153°
2026-05-07 20:25 53.62997 9.99958 48 ft 15 kts 152°
2026-05-07 20:26 53.62915 10.00030 48 ft 11 kts 150°
2026-05-07 20:26 53.62932 10.00117 48 ft 10 kts 33°
2026-05-07 20:26 53.62996 10.00185 48 ft 12 kts 32°
2026-05-07 20:26 53.63009 10.00287 47 ft 7 kts 114°
2026-05-07 20:27 53.62998 10.00331 48 ft 1 kts 111°
2026-05-07 20:27 53.62995 10.00343 48 ft 3 kts 110°
2026-05-07 20:27 53.62991 10.00362 48 ft 0 kts 110°